星链-33866 (STARLINK-33866)

导读

STARLINK-33866是由美国SpaceX公司于2025年4月25日发射的星链(Starlink)低轨互联网星座卫星。它运行在近地轨道,是SpaceX打造全球覆盖卫星互联网计划的组成部分,旨在为全球偏远、基础设施匮乏地区提供高速低延迟宽带服务,助力实现全域网络连接,进一步扩充了星链星座的服务规模与覆盖能力。

Basic Information
目录编号:
63653
目录名称:
STARLINK-33866
国际标识:
2025-083V
轨道中心:
EARTH
卫星名称:
星链-33866
卫星全名:
星链-33866 (STARLINK-33866)
卫星状态:
在轨 (已飞行504 天)
发射日期:
2025-04-25 UTC
国别 :
美国 (US)
星等 :
--
This satellite is enrolled in the Space Conjunction Data Service (SCDS) and the current flight risk assessment level is: High Risk
Orbit Information
数据来源 国际轨道数据
星历时间: 2026-09-09T18:05:31+0800
2天前
查看轨道信息
半长轴: 6861.155km
偏心率: 0.0000976
轨道倾角: 43.000°
近地点辐角 265.950°
升交点赤经 47.803°
平近点角 94.124°
近地点: 482.348km
远地点: 483.688km
周期: 94.266分钟
每日圈数: 15.275904
Detailed Information
固有亮度:
5
最大亮度:
2.5
卫星平台:
Starlink V1.0
覆盖范围:
全球
运营商:
太空探索技术公司
运营商所在国:
美国
制造商(研发单位):
太空探索技术公司
制造商所在国:
美国
使用方式:
暂无
Satellite Introduction
Starlink 计划是 SpaceX 推出的全球卫星互联网项目,通过发射低轨道卫星,为全球尤其是偏远地区提供高速、低延迟的互联网服务。自 2019 年起,Starlink 已部署数千颗卫星,旨在缩小全球数字鸿沟,推动互联网普及。该项目还为军事、航空等行业提供通信支持,带来广泛经济效益。
2D Orbit Map
3D Orbit Map
Orbit Altitude Analysis Chart
Orbit Inclination Analysis Chart
Orbit Comprehensive Analysis Chart
View Comprehensive Chart
Conjunction Data List
Event ID Objects TCA Miss Dist (km) Collision Risk Probability Collision Risk Index (CRI) Action
CDM_260911-222406-164006-365321
2026-09-11T
22:24:53+0000
0.345 km
远距离
3.43644E-4 高风险 0.86
CDM_260912-222805-945706-365321
2026-09-12T
22:28:36+0000
0.250 km
中距离
3.095082E-4 高风险 0.85
CDM_260912-153805-818306-365321
2026-09-12T
15:38:49+0000
0.407 km
远距离
2.506548E-4 高风险 0.83
CDM_260912-143205-746706-365321
2026-09-12T
14:32:35+0000
0.385 km
远距离
1.415885E-4 高风险 0.78
CDM_260912-205906-365306-385521
2026-09-12T
20:59:22+0000
0.668 km
远距离
5.459125E-5 中风险 0.7
CDM_260912-131906-164006-365321
2026-09-12T
13:19:20+0000
0.933 km
远距离
2.610031E-5 中风险 0.63
CDM_260912-200705-945706-365321
2026-09-12T
20:07:22+0000
0.703 km
远距离
2.494376E-5 中风险 0.63
CDM_260912-104305-602106-365321
2026-09-12T
10:43:56+0000
0.786 km
远距离
2.276926E-5 中风险 0.62
CDM_260911-181005-836706-365322
2026-09-11T
18:10:04+0000
0.668 km
远距离
2.163974E-5 中风险 0.62
CDM_260912-104706-365306-385521
2026-09-12T
10:47:23+0000
1.001 km
极远距离
1.45766E-5 中风险 0.58
Miss Distance Evolution Trend with All Objects
Collision Probability Evolution Trend with All Objects